This is the latest recevied weather packets stored in our database for station/object WA6ODQ-13. If no packets are shown the sender has not sent any weather packets the latest 10 day(s).
| Time | Temp. | Humidity | Pressure | Rain* | Wind** | Luminosity | Snow |
|---|---|---|---|---|---|---|---|
| 1777213592 | 11.67° C | 87% | 1008.9 hPa | 0 mm | - | 43 W/m² | - |
| 1777213289 | 11.67° C | 87% | 1009.1 hPa | 0 mm | - | 38 W/m² | - |
| 1777212985 | 11.67° C | 88% | 1008.8 hPa | 0 mm | - | 34 W/m² | - |
| 1777212683 | 11.67° C | 89% | 1008.9 hPa | 0 mm | - | 29 W/m² | - |
| 1777212382 | 11.67° C | 89% | 1008.9 hPa | 0 mm | - | 25 W/m² | - |
| 1777212078 | 11.67° C | 90% | 1008.9 hPa | 0 mm | - | 22 W/m² | - |
| 1777211774 | 11.67° C | 90% | 1008.9 hPa | 0 mm | - | 18 W/m² | - |
| 1777211472 | 11.67° C | 90% | 1008.7 hPa | 0 mm | - | 15 W/m² | - |
| 1777211168 | 11.11° C | 91% | 1008.7 hPa | 0 mm | - | 12 W/m² | - |
| 1777210865 | 11.11° C | 91% | 1008.7 hPa | 0 mm | - | 9 W/m² | - |
| 1777210564 | 11.11° C | 91% | 1008.5 hPa | 0 mm | - | 7 W/m² | - |
| 1777210261 | 11.11° C | 91% | 1008.6 hPa | 0 mm | - | 5 W/m² | - |
| 1777209957 | 11.11° C | 91% | 1008.4 hPa | 0 mm | - | 3 W/m² | - |
| 1777209652 | 11.11° C | 91% | 1008.3 hPa | 0 mm | - | 2 W/m² | - |
| 1777209349 | 11.11° C | 91% | 1008.3 hPa | 0 mm | - | 1 W/m² | - |
| 1777209045 | 11.11° C | 91% | 1008.3 hPa | 0 mm | - | 1 W/m² | - |
| 1777208741 | 11.11° C | 91% | 1008.1 hPa | 0 mm | - | 0 W/m² | - |
| 1777208438 | 11.11° C | 91% | 1008.3 hPa | 0 mm | - | 0 W/m² | - |
| 1777208135 | 11.11° C | 90% | 1008.2 hPa | 0 mm | - | 0 W/m² | - |
| 1777207835 | 11.11° C | 90% | 1008.3 hPa | 0 mm | - | 0 W/m² | - |
| 1777206616 | 11.11° C | 89% | 1008.1 hPa | 0 mm | - | 0 W/m² | - |
| 1777203275 | 11.11° C | 89% | 1008 hPa | 0 mm | - | 0 W/m² | - |
| 1777202972 | 11.11° C | 88% | 1007.9 hPa | 0 mm | - | 0 W/m² | - |
| 1777202366 | 11.11° C | 88% | 1008.1 hPa | 0 mm | - | 0 W/m² | - |
| 1777202061 | 11.11° C | 87% | 1008 hPa | 0 mm | - | 0 W/m² | - |
* Rain latest hour (hover to see other rain measurements)
** Current wind speed in m/s (hover to see current wind gust speed)